User: anonymous   Login
Location: Unspecified
(0.0000°N, 0.0000°E)
Time: 16:27:50
(UTC+00:00)
Language:

EGRS 7 - Orbit

View from above orbital plane
View from above orbital plane
View from above satellite
View from above satellite

Ground track
Ground track

The orbit data is extracted from the following two-line orbital elements,

1  2411U 66077B   19015.10187208 -.00000023 +00000-0 -12372-1 0  9990
2  2411 090.2188 249.3626 0023918 257.0253 102.7927 08.59617936644609
Epoch (UTC): 15 January 2019 02:26:41
Eccentricity: 0.0023918
inclination: 90.2188°
perigee height: 3664 km
apogee height: 3712 km
right ascension of ascending node: 249.3626°
argument of perigee: 257.0253°
revolutions per day: 8.59617936
mean anomaly at epoch: 102.7927°
orbit number at epoch: 64460

The dashed part of the orbit path shows where the satellite is in the earth's shadow,  

DLR